East Porterville
DateTemperatureDew Point
05/06 - 05:45 PM78.9°53.6°
05/06 - 05:30 PM79.3°53.5°
05/06 - 05:15 PM79.6°53.6°
05/06 - 05:00 PM79.8°53.5°
05/06 - 04:45 PM80.2°54.0°
05/06 - 04:30 PM80.2°54.0°
05/06 - 04:15 PM79.9°53.7°
05/06 - 04:00 PM80.5°54.3°
05/06 - 03:45 PM80.2°54.0°
05/06 - 03:30 PM80.1°54.1°
05/06 - 03:15 PM80.3°54.1°
05/06 - 03:00 PM79.9°54.1°
05/06 - 02:45 PM79.5°53.8°
05/06 - 02:30 PM79.3°54.1°
05/06 - 02:15 PM78.7°53.6°
05/06 - 02:00 PM78.4°53.8°
05/06 - 01:45 PM78.2°53.7°
05/06 - 01:30 PM78.8°53.4°
05/06 - 01:15 PM79.1°54.2°
05/06 - 01:00 PM78.0°53.5°
05/06 - 12:45 PM77.7°53.0°
05/06 - 12:30 PM76.9°53.0°
05/06 - 12:15 PM76.6°53.3°
05/06 - 12:00 PM75.8°52.6°
05/06 - 11:45 AM75.4°53.1°
05/06 - 11:30 AM75.2°53.8°
05/06 - 11:15 AM74.5°52.7°
05/06 - 11:00 AM73.4°52.5°
05/06 - 10:45 AM72.9°52.0°
05/06 - 10:30 AM72.5°52.0°
05/06 - 10:15 AM72.1°53.1°
05/06 - 10:00 AM70.7°52.0°
05/06 - 09:45 AM70.6°52.8°
05/06 - 09:30 AM69.9°52.7°
05/06 - 09:15 AM69.1°52.5°
05/06 - 09:00 AM67.9°52.1°
05/06 - 08:45 AM67.0°51.8°
05/06 - 08:30 AM66.1°51.5°
05/06 - 08:15 AM64.4°50.8°
05/06 - 08:00 AM62.5°50.2°
05/06 - 07:45 AM60.6°50.3°
05/06 - 07:30 AM58.8°50.1°
05/06 - 07:15 AM56.3°50.7°
05/06 - 07:00 AM53.7°51.2°
05/06 - 06:45 AM51.5°51.2°
05/06 - 06:30 AM49.8°49.8°
05/06 - 06:15 AM48.5°48.5°
05/06 - 06:00 AM48.0°47.6°
05/06 - 05:45 AM48.4°47.5°
05/06 - 05:30 AM49.1°47.7°
05/06 - 05:15 AM50.0°48.5°
05/06 - 05:00 AM50.7°48.9°
05/06 - 04:45 AM51.5°49.5°
05/06 - 04:30 AM51.6°49.7°
05/06 - 04:15 AM51.2°49.5°
05/06 - 04:00 AM51.4°49.7°
05/06 - 03:45 AM51.4°49.6°
05/06 - 03:30 AM51.7°49.7°
05/06 - 03:15 AM51.8°49.8°
05/06 - 03:00 AM51.8°49.5°
05/06 - 02:45 AM52.3°49.5°
05/06 - 02:30 AM52.4°49.6°
05/06 - 02:15 AM52.5°50.0°
05/06 - 02:00 AM53.0°50.2°
05/06 - 01:45 AM53.3°50.4°
05/06 - 01:30 AM53.1°50.3°
05/06 - 01:15 AM53.0°50.3°
05/06 - 01:00 AM53.1°50.1°
05/06 - 12:45 AM52.9°50.1°
05/06 - 12:30 AM52.9°50.2°
05/06 - 12:15 AM53.2°50.9°
05/06 - 12:00 AM53.1°50.9°
05/05 - 11:45 PM53.0°50.5°
05/05 - 11:30 PM53.4°50.2°
05/05 - 11:15 PM54.2°50.0°
05/05 - 11:00 PM54.7°49.3°
05/05 - 10:45 PM54.6°48.9°
05/05 - 10:30 PM55.2°50.0°
05/05 - 10:15 PM56.3°49.8°
05/05 - 10:00 PM57.8°49.7°
05/05 - 09:45 PM59.1°50.0°
05/05 - 09:30 PM60.3°50.3°
05/05 - 09:15 PM61.2°50.9°
05/05 - 09:00 PM61.9°50.4°
05/05 - 08:45 PM62.7°50.9°
05/05 - 08:30 PM63.2°49.3°
05/05 - 08:15 PM63.8°48.6°
05/05 - 08:00 PM64.6°48.8°
05/05 - 07:45 PM65.0°47.4°
05/05 - 07:30 PM65.5°47.2°
05/05 - 07:15 PM65.8°47.5°
05/05 - 07:00 PM66.1°47.6°
05/05 - 06:45 PM66.6°47.9°
05/05 - 06:30 PM66.9°47.8°
05/05 - 06:15 PM67.2°47.9°
05/05 - 06:00 PM67.6°48.1°
05/05 - 05:45 PM67.9°48.0°
05/05 - 05:30 PM68.4°48.4°
05/05 - 05:15 PM69.3°48.5°
05/05 - 05:00 PM69.5°48.3°
05/05 - 04:45 PM69.7°47.8°
05/05 - 04:30 PM70.9°47.5°
05/05 - 04:15 PM70.9°47.2°
05/05 - 04:00 PM71.5°47.7°
05/05 - 03:45 PM71.0°48.2°
05/05 - 03:30 PM71.2°48.5°
05/05 - 03:15 PM72.9°50.1°
05/05 - 03:00 PM72.0°50.7°
05/05 - 02:45 PM70.3°49.8°
05/05 - 02:30 PM70.2°50.4°
05/05 - 02:15 PM69.2°51.5°
05/05 - 02:00 PM68.9°51.4°
05/05 - 01:45 PM68.3°51.1°
05/05 - 01:30 PM70.5°51.8°
05/05 - 01:15 PM71.3°52.9°
05/05 - 01:00 PM70.2°53.0°
05/05 - 12:45 PM68.1°52.9°
05/05 - 12:30 PM66.0°52.7°
05/05 - 12:15 PM66.2°52.9°
05/05 - 12:00 PM64.8°52.9°
05/05 - 11:45 AM64.5°52.8°
05/05 - 11:30 AM64.9°52.9°
05/05 - 11:15 AM64.0°52.8°
05/05 - 11:00 AM64.7°53.2°
05/05 - 10:45 AM63.7°53.1°
05/05 - 10:30 AM63.0°53.2°
05/05 - 10:15 AM62.4°53.4°
05/05 - 10:00 AM62.9°53.4°
05/05 - 09:45 AM60.9°54.3°
05/05 - 09:30 AM58.9°53.7°
05/05 - 09:15 AM58.2°53.7°
05/05 - 09:00 AM58.1°53.6°
05/05 - 08:45 AM57.6°53.3°
05/05 - 08:30 AM57.2°53.7°
05/05 - 08:15 AM56.4°52.9°
05/05 - 08:00 AM56.1°52.6°
05/05 - 07:45 AM55.8°52.4°
05/05 - 07:30 AM55.5°52.5°
05/05 - 07:15 AM55.1°52.2°
05/05 - 07:00 AM55.2°52.5°
05/05 - 06:45 AM55.1°52.6°
05/05 - 06:30 AM54.9°52.5°
05/05 - 06:15 AM54.9°52.7°
05/05 - 06:00 AM54.9°52.6°
05/05 - 05:45 AM54.9°52.5°
05/05 - 05:30 AM54.9°52.3°
05/05 - 05:15 AM54.9°52.4°
05/05 - 05:00 AM54.9°52.1°
05/05 - 04:45 AM54.8°52.0°
05/05 - 04:30 AM54.8°52.5°
05/05 - 04:15 AM54.9°52.6°
05/05 - 04:00 AM54.9°52.3°
05/05 - 03:45 AM55.2°52.5°
05/05 - 03:30 AM55.4°52.3°
05/05 - 03:15 AM55.3°52.3°
05/05 - 03:00 AM55.5°52.9°
05/05 - 02:45 AM55.6°53.1°
05/05 - 02:30 AM55.5°53.4°
05/05 - 02:15 AM55.5°53.2°
05/05 - 02:00 AM55.7°53.1°
05/05 - 01:45 AM56.0°52.7°
05/05 - 01:30 AM56.3°52.4°
05/05 - 01:15 AM56.5°52.1°
05/05 - 01:00 AM56.6°51.7°
05/05 - 12:45 AM56.7°52.1°
05/05 - 12:30 AM56.8°51.7°
05/05 - 12:15 AM56.8°51.6°
05/05 - 12:00 AM57.1°51.1°
05/04 - 11:45 PM57.1°50.4°
05/04 - 11:30 PM57.1°50.2°
05/04 - 11:15 PM57.1°50.1°
05/04 - 11:00 PM57.2°49.9°
05/04 - 10:45 PM57.5°49.8°
05/04 - 10:30 PM57.7°49.4°
05/04 - 10:15 PM57.9°49.0°
05/04 - 10:00 PM58.2°48.8°
05/04 - 09:45 PM58.6°48.4°
05/04 - 09:30 PM58.7°48.5°
05/04 - 09:15 PM59.1°48.5°
05/04 - 09:00 PM59.2°48.7°
05/04 - 08:45 PM59.7°49.0°
05/04 - 08:30 PM59.7°49.0°
05/04 - 08:15 PM60.0°49.7°
05/04 - 08:00 PM60.4°49.2°
05/04 - 07:45 PM60.8°49.0°
05/04 - 07:30 PM61.8°49.4°
05/04 - 07:15 PM62.6°48.8°
05/04 - 07:00 PM63.3°48.1°
05/04 - 06:45 PM63.8°47.4°
05/04 - 06:30 PM64.3°46.2°